iso_date,epoch_date,Year,Hour,Min,DOY,POS_DOY,Lat,Lon,BP,Ts,Ta,has_bp,has_ts,has_ta,BuoyID,Buoy_Type,Buoy_Owner,Logistics,Hemisphere
2020-07-07T18:00:00Z,1594144800,2020,18,0,189.75,189.75,79.45705,5.36221,-999.00,-999.00,-999.0,no,no,no,300534060451020,NOMAD,AWI/USIABP,MOSAiC,North
2020-07-07T19:00:02Z,1594148403,2020,19,0,189.7917,189.7917,79.48342,5.49442,-999.00,-999.00,-999.0,no,no,no,300534060451020,NOMAD,AWI/USIABP,MOSAiC,North
2020-07-07T19:59:57Z,1594151997,2020,20,0,189.8333,189.8333,79.48785,5.51478,-999.00,-999.00,-999.0,no,no,no,300534060451020,NOMAD,AWI/USIABP,MOSAiC,North
2020-07-07T21:00:00Z,1594155600,2020,21,0,189.875,189.875,79.48775,5.51376,-999.00,-999.00,-999.0,no,no,no,300534060451020,NOMAD,AWI/USIABP,MOSAiC,North
2020-07-07T22:00:02Z,1594159203,2020,22,0,189.9167,189.9167,79.48775,5.51376,-999.00,-999.00,-999.0,no,no,no,300534060451020,NOMAD,AWI/USIABP,MOSAiC,North
2020-07-07T22:59:57Z,1594162797,2020,23,0,189.9583,189.9583,79.48775,5.51376,-999.00,-999.00,-999.0,no,no,no,300534060451020,NOMAD,AWI/USIABP,MOSAiC,North
2020-07-08T00:00:00Z,1594166400,2020,0,0,190.0,190.0,79.48775,5.51376,-999.00,-999.00,-999.0,no,no,no,300534060451020,NOMAD,AWI/USIABP,MOSAiC,North
2020-07-08T01:00:02Z,1594170003,2020,1,0,190.0417,190.0417,79.48775,5.51376,-999.00,-999.00,-999.0,no,no,no,300534060451020,NOMAD,AWI/USIABP,MOSAiC,North
2020-07-08T01:59:57Z,1594173597,2020,2,0,190.0833,190.0833,79.48775,5.51376,-999.00,-999.00,-999.0,no,no,no,300534060451020,NOMAD,AWI/USIABP,MOSAiC,North
2020-07-08T03:00:00Z,1594177200,2020,3,0,190.125,190.125,79.48775,5.51376,-999.00,-999.00,-999.0,no,no,no,300534060451020,NOMAD,AWI/USIABP,MOSAiC,North
2020-07-08T04:00:02Z,1594180803,2020,4,0,190.1667,190.1667,79.48775,5.51376,-999.00,-999.00,-999.0,no,no,no,300534060451020,NOMAD,AWI/USIABP,MOSAiC,North
2020-07-08T04:59:57Z,1594184397,2020,5,0,190.2083,190.2083,79.48775,5.51376,-999.00,-999.00,-999.0,no,no,no,300534060451020,NOMAD,AWI/USIABP,MOSAiC,North
2020-07-08T06:00:00Z,1594188000,2020,6,0,190.25,190.25,79.48775,5.51376,-999.00,-999.00,-999.0,no,no,no,300534060451020,NOMAD,AWI/USIABP,MOSAiC,North
2020-07-08T07:00:02Z,1594191603,2020,7,0,190.2917,190.2917,79.48775,5.51376,-999.00,-999.00,-999.0,no,no,no,300534060451020,NOMAD,AWI/USIABP,MOSAiC,North
2020-07-08T07:59:57Z,1594195197,2020,8,0,190.3333,190.3333,79.48775,5.51376,-999.00,-999.00,-999.0,no,no,no,300534060451020,NOMAD,AWI/USIABP,MOSAiC,North
2020-07-08T09:00:00Z,1594198800,2020,9,0,190.375,190.375,79.48775,5.51376,-999.00,-999.00,-999.0,no,no,no,300534060451020,NOMAD,AWI/USIABP,MOSAiC,North
2020-07-08T10:00:02Z,1594202403,2020,10,0,190.4167,190.4167,79.48775,5.51376,-999.00,-999.00,-999.0,no,no,no,300534060451020,NOMAD,AWI/USIABP,MOSAiC,North
2020-07-08T10:59:57Z,1594205997,2020,11,0,190.4583,190.4583,79.48775,5.51376,-999.00,-999.00,-999.0,no,no,no,300534060451020,NOMAD,AWI/USIABP,MOSAiC,North
2020-07-08T12:00:00Z,1594209600,2020,12,0,190.5,190.5,79.48775,5.51376,-999.00,-999.00,-999.0,no,no,no,300534060451020,NOMAD,AWI/USIABP,MOSAiC,North
2020-07-08T13:00:02Z,1594213203,2020,13,0,190.5417,190.5417,79.48775,5.51376,-999.00,-999.00,-999.0,no,no,no,300534060451020,NOMAD,AWI/USIABP,MOSAiC,North
2020-07-08T19:20:03Z,1594236004,2020,19,20,190.8056,190.8056,79.48775,5.51376,-999.00,-999.00,-999.0,no,no,no,300534060451020,NOMAD,AWI/USIABP,MOSAiC,North
2020-07-12T22:30:00Z,1594593000,2020,22,30,194.9375,194.9375,79.41752,3.36548,-999.00,-999.00,-999.0,no,no,no,300534060451020,NOMAD,AWI/USIABP,MOSAiC,North
2020-07-12T22:39:56Z,1594593596,2020,22,40,194.9444,194.9444,79.41806,3.36765,-999.00,-999.00,-999.0,no,no,no,300534060451020,NOMAD,AWI/USIABP,MOSAiC,North
2020-07-12T22:50:00Z,1594594201,2020,22,50,194.9514,194.9514,79.41523,3.38444,-999.00,-999.00,-999.0,no,no,no,300534060451020,NOMAD,AWI/USIABP,MOSAiC,North
2020-07-12T22:59:57Z,1594594797,2020,23,0,194.9583,194.9583,79.41522,3.38404,-999.00,-999.00,-999.0,no,no,no,300534060451020,NOMAD,AWI/USIABP,MOSAiC,North
2020-07-12T23:10:01Z,1594595402,2020,23,10,194.9653,194.9653,79.41512,3.3848,-999.00,-999.00,-999.0,no,no,no,300534060451020,NOMAD,AWI/USIABP,MOSAiC,North
2020-07-12T23:19:58Z,1594595998,2020,23,20,194.9722,194.9722,79.41546,3.38444,-999.00,-999.00,-999.0,no,no,no,300534060451020,NOMAD,AWI/USIABP,MOSAiC,North
2020-07-12T23:30:02Z,1594596603,2020,23,30,194.9792,194.9792,79.41538,3.3845,-999.00,-999.00,-999.0,no,no,no,300534060451020,NOMAD,AWI/USIABP,MOSAiC,North
2020-07-12T23:39:59Z,1594597199,2020,23,40,194.9861,194.9861,79.41546,3.38458,-999.00,-999.00,-999.0,no,no,no,300534060451020,NOMAD,AWI/USIABP,MOSAiC,North
2020-07-12T23:50:03Z,1594597804,2020,23,50,194.9931,194.9931,79.41537,3.3843,-999.00,-999.00,-999.0,no,no,no,300534060451020,NOMAD,AWI/USIABP,MOSAiC,North
2020-07-13T00:00:00Z,1594598400,2020,0,0,195.0,195.0,79.41397,3.39156,-999.00,-999.00,-999.0,no,no,no,300534060451020,NOMAD,AWI/USIABP,MOSAiC,North
2020-07-13T00:09:56Z,1594598996,2020,0,10,195.0069,195.0069,79.41225,3.40201,-999.00,-999.00,-999.0,no,no,no,300534060451020,NOMAD,AWI/USIABP,MOSAiC,North
2020-07-13T00:20:00Z,1594599601,2020,0,20,195.0139,195.0139,79.41233,3.40222,-999.00,-999.00,-999.0,no,no,no,300534060451020,NOMAD,AWI/USIABP,MOSAiC,North
2020-07-13T00:29:57Z,1594600197,2020,0,30,195.0208,195.0208,79.41229,3.40243,-999.00,-999.00,-999.0,no,no,no,300534060451020,NOMAD,AWI/USIABP,MOSAiC,North
2020-07-13T00:40:01Z,1594600802,2020,0,40,195.0278,195.0278,79.4123,3.4018,-999.00,-999.00,-999.0,no,no,no,300534060451020,NOMAD,AWI/USIABP,MOSAiC,North
2020-07-13T00:49:58Z,1594601398,2020,0,50,195.0347,195.0347,79.41229,3.40228,-999.00,-999.00,-999.0,no,no,no,300534060451020,NOMAD,AWI/USIABP,MOSAiC,North
2020-07-13T01:00:02Z,1594602003,2020,1,0,195.0417,195.0417,79.41224,3.40188,-999.00,-999.00,-999.0,no,no,no,300534060451020,NOMAD,AWI/USIABP,MOSAiC,North
2020-07-13T01:09:59Z,1594602599,2020,1,10,195.0486,195.0486,79.41218,3.4021,-999.00,-999.00,-999.0,no,no,no,300534060451020,NOMAD,AWI/USIABP,MOSAiC,North
2020-07-13T01:20:03Z,1594603204,2020,1,20,195.0556,195.0556,79.41258,3.35742,-999.00,-999.00,-999.0,no,no,no,300534060451020,NOMAD,AWI/USIABP,MOSAiC,North
2020-07-13T01:30:00Z,1594603800,2020,1,30,195.0625,195.0625,79.42559,3.21722,-999.00,-999.00,-999.0,no,no,no,300534060451020,NOMAD,AWI/USIABP,MOSAiC,North
2020-07-13T01:39:56Z,1594604396,2020,1,40,195.0694,195.0694,79.43006,3.09929,-999.00,-999.00,-999.0,no,no,no,300534060451020,NOMAD,AWI/USIABP,MOSAiC,North
2020-07-13T01:50:00Z,1594605001,2020,1,50,195.0764,195.0764,79.41807,3.16283,-999.00,-999.00,-999.0,no,no,no,300534060451020,NOMAD,AWI/USIABP,MOSAiC,North
2020-07-13T01:59:57Z,1594605597,2020,2,0,195.0833,195.0833,79.40647,3.22902,-999.00,-999.00,-999.0,no,no,no,300534060451020,NOMAD,AWI/USIABP,MOSAiC,North
2020-07-13T02:10:01Z,1594606202,2020,2,10,195.0903,195.0903,79.39532,3.2953,-999.00,-999.00,-999.0,no,no,no,300534060451020,NOMAD,AWI/USIABP,MOSAiC,North
2020-07-13T02:19:58Z,1594606798,2020,2,20,195.0972,195.0972,79.38407,3.35978,-999.00,-999.00,-999.0,no,no,no,300534060451020,NOMAD,AWI/USIABP,MOSAiC,North
2020-07-13T02:30:02Z,1594607403,2020,2,30,195.1042,195.1042,79.37298,3.42509,-999.00,-999.00,-999.0,no,no,no,300534060451020,NOMAD,AWI/USIABP,MOSAiC,North
2020-07-13T02:39:59Z,1594607999,2020,2,40,195.1111,195.1111,79.36162,3.49001,-999.00,-999.00,-999.0,no,no,no,300534060451020,NOMAD,AWI/USIABP,MOSAiC,North
2020-07-13T02:50:03Z,1594608604,2020,2,50,195.1181,195.1181,79.36622,3.56686,-999.00,-999.00,-999.0,no,no,no,300534060451020,NOMAD,AWI/USIABP,MOSAiC,North
2020-07-13T03:00:00Z,1594609200,2020,3,0,195.125,195.125,79.38036,3.63835,-999.00,-999.00,-999.0,no,no,no,300534060451020,NOMAD,AWI/USIABP,MOSAiC,North
2020-07-13T03:09:56Z,1594609796,2020,3,10,195.1319,195.1319,79.39396,3.58935,-999.00,-999.00,-999.0,no,no,no,300534060451020,NOMAD,AWI/USIABP,MOSAiC,North
2020-07-13T03:20:00Z,1594610401,2020,3,20,195.1389,195.1389,79.40496,3.52409,-999.00,-999.00,-999.0,no,no,no,300534060451020,NOMAD,AWI/USIABP,MOSAiC,North
2020-07-13T03:29:57Z,1594610997,2020,3,30,195.1458,195.1458,79.41612,3.45919,-999.00,-999.00,-999.0,no,no,no,300534060451020,NOMAD,AWI/USIABP,MOSAiC,North
2020-07-13T03:40:01Z,1594611602,2020,3,40,195.1528,195.1528,79.4274,3.39222,-999.00,-999.00,-999.0,no,no,no,300534060451020,NOMAD,AWI/USIABP,MOSAiC,North
2020-07-13T03:49:58Z,1594612198,2020,3,50,195.1597,195.1597,79.43866,3.32651,-999.00,-999.00,-999.0,no,no,no,300534060451020,NOMAD,AWI/USIABP,MOSAiC,North
2020-07-13T04:00:02Z,1594612803,2020,4,0,195.1667,195.1667,79.45008,3.2598,-999.00,-999.00,-999.0,no,no,no,300534060451020,NOMAD,AWI/USIABP,MOSAiC,North
2020-07-13T04:09:59Z,1594613399,2020,4,10,195.1736,195.1736,79.46276,3.25586,-999.00,-999.00,-999.0,no,no,no,300534060451020,NOMAD,AWI/USIABP,MOSAiC,North
2020-07-13T04:20:03Z,1594614004,2020,4,20,195.1806,195.1806,79.47681,3.32729,-999.00,-999.00,-999.0,no,no,no,300534060451020,NOMAD,AWI/USIABP,MOSAiC,North
2020-07-13T04:30:00Z,1594614600,2020,4,30,195.1875,195.1875,79.47477,3.40025,-999.00,-999.00,-999.0,no,no,no,300534060451020,NOMAD,AWI/USIABP,MOSAiC,North
2020-07-13T04:39:56Z,1594615196,2020,4,40,195.1944,195.1944,79.46367,3.46623,-999.00,-999.00,-999.0,no,no,no,300534060451020,NOMAD,AWI/USIABP,MOSAiC,North
2020-07-13T04:50:00Z,1594615801,2020,4,50,195.2014,195.2014,79.45243,3.53175,-999.00,-999.00,-999.0,no,no,no,300534060451020,NOMAD,AWI/USIABP,MOSAiC,North
2020-07-13T04:59:57Z,1594616397,2020,5,0,195.2083,195.2083,79.44098,3.59793,-999.00,-999.00,-999.0,no,no,no,300534060451020,NOMAD,AWI/USIABP,MOSAiC,North
2020-07-13T05:10:01Z,1594617002,2020,5,10,195.2153,195.2153,79.42982,3.66431,-999.00,-999.00,-999.0,no,no,no,300534060451020,NOMAD,AWI/USIABP,MOSAiC,North
2020-07-13T05:19:58Z,1594617598,2020,5,20,195.2222,195.2222,79.41833,3.73023,-999.00,-999.00,-999.0,no,no,no,300534060451020,NOMAD,AWI/USIABP,MOSAiC,North
2020-07-13T05:30:02Z,1594618203,2020,5,30,195.2292,195.2292,79.41537,3.8043,-999.00,-999.00,-999.0,no,no,no,300534060451020,NOMAD,AWI/USIABP,MOSAiC,North
2020-07-13T05:39:59Z,1594618799,2020,5,40,195.2361,195.2361,79.43286,3.89312,-999.00,-999.00,-999.0,no,no,no,300534060451020,NOMAD,AWI/USIABP,MOSAiC,North
2020-07-13T05:50:03Z,1594619404,2020,5,50,195.2431,195.2431,79.44709,3.85454,-999.00,-999.00,-999.0,no,no,no,300534060451020,NOMAD,AWI/USIABP,MOSAiC,North
2020-07-13T06:00:00Z,1594620000,2020,6,0,195.25,195.25,79.45832,3.78462,-999.00,-999.00,-999.0,no,no,no,300534060451020,NOMAD,AWI/USIABP,MOSAiC,North
2020-07-13T06:09:56Z,1594620596,2020,6,10,195.2569,195.2569,79.46974,3.71848,-999.00,-999.00,-999.0,no,no,no,300534060451020,NOMAD,AWI/USIABP,MOSAiC,North
2020-07-13T06:20:00Z,1594621201,2020,6,20,195.2639,195.2639,79.48106,3.65215,-999.00,-999.00,-999.0,no,no,no,300534060451020,NOMAD,AWI/USIABP,MOSAiC,North
2020-07-13T06:29:57Z,1594621797,2020,6,30,195.2708,195.2708,79.49228,3.58453,-999.00,-999.00,-999.0,no,no,no,300534060451020,NOMAD,AWI/USIABP,MOSAiC,North
2020-07-13T06:40:01Z,1594622402,2020,6,40,195.2778,195.2778,79.50355,3.51693,-999.00,-999.00,-999.0,no,no,no,300534060451020,NOMAD,AWI/USIABP,MOSAiC,North
2020-07-13T06:49:58Z,1594622998,2020,6,50,195.2847,195.2847,79.51481,3.45151,-999.00,-999.00,-999.0,no,no,no,300534060451020,NOMAD,AWI/USIABP,MOSAiC,North
2020-07-13T07:00:02Z,1594623603,2020,7,0,195.2917,195.2917,79.52615,3.38439,-999.00,-999.00,-999.0,no,no,no,300534060451020,NOMAD,AWI/USIABP,MOSAiC,North
2020-07-13T07:09:59Z,1594624199,2020,7,10,195.2986,195.2986,79.5374,3.31742,-999.00,-999.00,-999.0,no,no,no,300534060451020,NOMAD,AWI/USIABP,MOSAiC,North
2020-07-13T07:20:03Z,1594624804,2020,7,20,195.3056,195.3056,79.54877,3.25103,-999.00,-999.00,-999.0,no,no,no,300534060451020,NOMAD,AWI/USIABP,MOSAiC,North
2020-07-13T07:30:00Z,1594625400,2020,7,30,195.3125,195.3125,79.56,3.1851,-999.00,-999.00,-999.0,no,no,no,300534060451020,NOMAD,AWI/USIABP,MOSAiC,North
2020-07-13T07:39:56Z,1594625996,2020,7,40,195.3194,195.3194,79.56153,3.12473,-999.00,-999.00,-999.0,no,no,no,300534060451020,NOMAD,AWI/USIABP,MOSAiC,North
2020-07-13T07:50:00Z,1594626601,2020,7,50,195.3264,195.3264,79.54093,3.22143,-999.00,-999.00,-999.0,no,no,no,300534060451020,NOMAD,AWI/USIABP,MOSAiC,North
2020-07-13T07:59:57Z,1594627197,2020,8,0,195.3333,195.3333,79.51643,3.33516,-999.00,-999.00,-999.0,no,no,no,300534060451020,NOMAD,AWI/USIABP,MOSAiC,North
2020-07-13T08:10:01Z,1594627802,2020,8,10,195.3403,195.3403,79.50119,3.42948,-999.00,-999.00,-999.0,no,no,no,300534060451020,NOMAD,AWI/USIABP,MOSAiC,North
2020-07-13T08:19:58Z,1594628398,2020,8,20,195.3472,195.3472,79.5003,3.43556,-999.00,-999.00,-999.0,no,no,no,300534060451020,NOMAD,AWI/USIABP,MOSAiC,North
2020-07-13T08:30:02Z,1594629003,2020,8,30,195.3542,195.3542,79.50016,3.43481,-999.00,-999.00,-999.0,no,no,no,300534060451020,NOMAD,AWI/USIABP,MOSAiC,North
2020-07-13T08:39:59Z,1594629599,2020,8,40,195.3611,195.3611,79.50028,3.43522,-999.00,-999.00,-999.0,no,no,no,300534060451020,NOMAD,AWI/USIABP,MOSAiC,North
2020-07-13T08:50:03Z,1594630204,2020,8,50,195.3681,195.3681,79.50021,3.43513,-999.00,-999.00,-999.0,no,no,no,300534060451020,NOMAD,AWI/USIABP,MOSAiC,North
2020-07-13T09:00:00Z,1594630800,2020,9,0,195.375,195.375,79.5002,3.43521,-999.00,-999.00,-999.0,no,no,no,300534060451020,NOMAD,AWI/USIABP,MOSAiC,North
2020-07-13T09:09:56Z,1594631396,2020,9,10,195.3819,195.3819,79.49994,3.43567,-999.00,-999.00,-999.0,no,no,no,300534060451020,NOMAD,AWI/USIABP,MOSAiC,North
2020-07-13T09:20:00Z,1594632001,2020,9,20,195.3889,195.3889,79.5085,3.43735,-999.00,-999.00,-999.0,no,no,no,300534060451020,NOMAD,AWI/USIABP,MOSAiC,North
2020-07-13T09:29:57Z,1594632597,2020,9,30,195.3958,195.3958,79.51891,3.43599,-999.00,-999.00,-999.0,no,no,no,300534060451020,NOMAD,AWI/USIABP,MOSAiC,North
2020-07-13T09:40:01Z,1594633202,2020,9,40,195.4028,195.4028,79.52562,3.46653,-999.00,-999.00,-999.0,no,no,no,300534060451020,NOMAD,AWI/USIABP,MOSAiC,North
2020-07-13T09:49:58Z,1594633798,2020,9,50,195.4097,195.4097,79.525,3.5286,-999.00,-999.00,-999.0,no,no,no,300534060451020,NOMAD,AWI/USIABP,MOSAiC,North
2020-07-13T10:00:02Z,1594634403,2020,10,0,195.4167,195.4167,79.51336,3.53502,-999.00,-999.00,-999.0,no,no,no,300534060451020,NOMAD,AWI/USIABP,MOSAiC,North
2020-07-13T10:09:59Z,1594634999,2020,10,10,195.4236,195.4236,79.50277,3.53517,-999.00,-999.00,-999.0,no,no,no,300534060451020,NOMAD,AWI/USIABP,MOSAiC,North
2020-07-13T10:20:03Z,1594635604,2020,10,20,195.4306,195.4306,79.50005,3.53365,-999.00,-999.00,-999.0,no,no,no,300534060451020,NOMAD,AWI/USIABP,MOSAiC,North
2020-07-13T10:30:00Z,1594636200,2020,10,30,195.4375,195.4375,79.50002,3.53385,-999.00,-999.00,-999.0,no,no,no,300534060451020,NOMAD,AWI/USIABP,MOSAiC,North
2020-07-13T10:39:56Z,1594636796,2020,10,40,195.4444,195.4444,79.50001,3.53397,-999.00,-999.00,-999.0,no,no,no,300534060451020,NOMAD,AWI/USIABP,MOSAiC,North
2020-07-13T10:50:00Z,1594637401,2020,10,50,195.4514,195.4514,79.49998,3.53403,-999.00,-999.00,-999.0,no,no,no,300534060451020,NOMAD,AWI/USIABP,MOSAiC,North
2020-07-13T10:59:57Z,1594637997,2020,11,0,195.4583,195.4583,79.50003,3.53444,-999.00,-999.00,-999.0,no,no,no,300534060451020,NOMAD,AWI/USIABP,MOSAiC,North
2020-07-13T11:10:01Z,1594638602,2020,11,10,195.4653,195.4653,79.50004,3.53342,-999.00,-999.00,-999.0,no,no,no,300534060451020,NOMAD,AWI/USIABP,MOSAiC,North
2020-07-13T11:19:58Z,1594639198,2020,11,20,195.4722,195.4722,79.50002,3.53421,-999.00,-999.00,-999.0,no,no,no,300534060451020,NOMAD,AWI/USIABP,MOSAiC,North
2020-07-13T11:30:02Z,1594639803,2020,11,30,195.4792,195.4792,79.50001,3.53404,-999.00,-999.00,-999.0,no,no,no,300534060451020,NOMAD,AWI/USIABP,MOSAiC,North
2020-07-13T11:39:59Z,1594640399,2020,11,40,195.4861,195.4861,79.50007,3.53333,-999.00,-999.00,-999.0,no,no,no,300534060451020,NOMAD,AWI/USIABP,MOSAiC,North
2020-07-13T11:50:03Z,1594641004,2020,11,50,195.4931,195.4931,79.49996,3.53384,-999.00,-999.00,-999.0,no,no,no,300534060451020,NOMAD,AWI/USIABP,MOSAiC,North
2020-07-13T12:00:00Z,1594641600,2020,12,0,195.5,195.5,79.49993,3.53381,-999.00,-999.00,-999.0,no,no,no,300534060451020,NOMAD,AWI/USIABP,MOSAiC,North
2020-07-13T12:09:56Z,1594642196,2020,12,10,195.5069,195.5069,79.49997,3.53417,-999.00,-999.00,-999.0,no,no,no,300534060451020,NOMAD,AWI/USIABP,MOSAiC,North
2020-07-13T12:20:00Z,1594642801,2020,12,20,195.5139,195.5139,79.50002,3.53408,-999.00,-999.00,-999.0,no,no,no,300534060451020,NOMAD,AWI/USIABP,MOSAiC,North
2020-07-13T12:29:57Z,1594643397,2020,12,30,195.5208,195.5208,79.50004,3.53391,-999.00,-999.00,-999.0,no,no,no,300534060451020,NOMAD,AWI/USIABP,MOSAiC,North
2020-07-13T12:40:01Z,1594644002,2020,12,40,195.5278,195.5278,79.49362,3.53437,-999.00,-999.00,-999.0,no,no,no,300534060451020,NOMAD,AWI/USIABP,MOSAiC,North
2020-07-13T12:49:58Z,1594644598,2020,12,50,195.5347,195.5347,79.48175,3.53488,-999.00,-999.00,-999.0,no,no,no,300534060451020,NOMAD,AWI/USIABP,MOSAiC,North
2020-07-13T13:00:02Z,1594645203,2020,13,0,195.5417,195.5417,79.47446,3.55988,-999.00,-999.00,-999.0,no,no,no,300534060451020,NOMAD,AWI/USIABP,MOSAiC,North
2020-07-13T13:09:59Z,1594645799,2020,13,10,195.5486,195.5486,79.4745,3.62275,-999.00,-999.00,-999.0,no,no,no,300534060451020,NOMAD,AWI/USIABP,MOSAiC,North
2020-07-13T13:20:03Z,1594646404,2020,13,20,195.5556,195.5556,79.48477,3.63332,-999.00,-999.00,-999.0,no,no,no,300534060451020,NOMAD,AWI/USIABP,MOSAiC,North
2020-07-13T13:30:00Z,1594647000,2020,13,30,195.5625,195.5625,79.49492,3.6335,-999.00,-999.00,-999.0,no,no,no,300534060451020,NOMAD,AWI/USIABP,MOSAiC,North
2020-07-13T13:39:56Z,1594647596,2020,13,40,195.5694,195.5694,79.49961,3.63362,-999.00,-999.00,-999.0,no,no,no,300534060451020,NOMAD,AWI/USIABP,MOSAiC,North
2020-07-13T13:50:00Z,1594648201,2020,13,50,195.5764,195.5764,79.49972,3.63362,-999.00,-999.00,-999.0,no,no,no,300534060451020,NOMAD,AWI/USIABP,MOSAiC,North
2020-07-13T13:59:57Z,1594648797,2020,14,0,195.5833,195.5833,79.4997,3.63353,-999.00,-999.00,-999.0,no,no,no,300534060451020,NOMAD,AWI/USIABP,MOSAiC,North
2020-07-13T14:10:01Z,1594649402,2020,14,10,195.5903,195.5903,79.49973,3.63378,-999.00,-999.00,-999.0,no,no,no,300534060451020,NOMAD,AWI/USIABP,MOSAiC,North
2020-07-13T14:19:58Z,1594649998,2020,14,20,195.5972,195.5972,79.49968,3.63363,-999.00,-999.00,-999.0,no,no,no,300534060451020,NOMAD,AWI/USIABP,MOSAiC,North
2020-07-13T14:30:02Z,1594650603,2020,14,30,195.6042,195.6042,79.49968,3.6337,-999.00,-999.00,-999.0,no,no,no,300534060451020,NOMAD,AWI/USIABP,MOSAiC,North
2020-07-13T14:39:59Z,1594651199,2020,14,40,195.6111,195.6111,79.49968,3.6333,-999.00,-999.00,-999.0,no,no,no,300534060451020,NOMAD,AWI/USIABP,MOSAiC,North
2020-07-13T14:50:03Z,1594651804,2020,14,50,195.6181,195.6181,79.49975,3.63353,-999.00,-999.00,-999.0,no,no,no,300534060451020,NOMAD,AWI/USIABP,MOSAiC,North
2020-07-13T15:00:00Z,1594652400,2020,15,0,195.625,195.625,79.49965,3.6337,-999.00,-999.00,-999.0,no,no,no,300534060451020,NOMAD,AWI/USIABP,MOSAiC,North
2020-07-13T15:09:56Z,1594652996,2020,15,10,195.6319,195.6319,79.49964,3.63348,-999.00,-999.00,-999.0,no,no,no,300534060451020,NOMAD,AWI/USIABP,MOSAiC,North
2020-07-13T15:20:00Z,1594653601,2020,15,20,195.6389,195.6389,79.4997,3.63286,-999.00,-999.00,-999.0,no,no,no,300534060451020,NOMAD,AWI/USIABP,MOSAiC,North
2020-07-13T15:29:57Z,1594654197,2020,15,30,195.6458,195.6458,79.49975,3.63341,-999.00,-999.00,-999.0,no,no,no,300534060451020,NOMAD,AWI/USIABP,MOSAiC,North
2020-07-13T15:40:01Z,1594654802,2020,15,40,195.6528,195.6528,79.49967,3.63349,-999.00,-999.00,-999.0,no,no,no,300534060451020,NOMAD,AWI/USIABP,MOSAiC,North
2020-07-13T15:49:58Z,1594655398,2020,15,50,195.6597,195.6597,79.4996,3.63363,-999.00,-999.00,-999.0,no,no,no,300534060451020,NOMAD,AWI/USIABP,MOSAiC,North
2020-07-13T16:00:02Z,1594656003,2020,16,0,195.6667,195.6667,79.49972,3.63253,-999.00,-999.00,-999.0,no,no,no,300534060451020,NOMAD,AWI/USIABP,MOSAiC,North
2020-07-13T16:09:59Z,1594656599,2020,16,10,195.6736,195.6736,79.49971,3.63332,-999.00,-999.00,-999.0,no,no,no,300534060451020,NOMAD,AWI/USIABP,MOSAiC,North
2020-07-13T16:20:03Z,1594657204,2020,16,20,195.6806,195.6806,79.4998,3.63408,-999.00,-999.00,-999.0,no,no,no,300534060451020,NOMAD,AWI/USIABP,MOSAiC,North
2020-07-13T16:30:00Z,1594657800,2020,16,30,195.6875,195.6875,79.49984,3.63343,-999.00,-999.00,-999.0,no,no,no,300534060451020,NOMAD,AWI/USIABP,MOSAiC,North
2020-07-13T16:39:56Z,1594658396,2020,16,40,195.6944,195.6944,79.49969,3.63356,-999.00,-999.00,-999.0,no,no,no,300534060451020,NOMAD,AWI/USIABP,MOSAiC,North
2020-07-13T16:50:00Z,1594659001,2020,16,50,195.7014,195.7014,79.49971,3.63378,-999.00,-999.00,-999.0,no,no,no,300534060451020,NOMAD,AWI/USIABP,MOSAiC,North
2020-07-13T16:59:57Z,1594659597,2020,17,0,195.7083,195.7083,79.49973,3.63348,-999.00,-999.00,-999.0,no,no,no,300534060451020,NOMAD,AWI/USIABP,MOSAiC,North
2020-07-13T17:10:01Z,1594660202,2020,17,10,195.7153,195.7153,79.49966,3.63387,-999.00,-999.00,-999.0,no,no,no,300534060451020,NOMAD,AWI/USIABP,MOSAiC,North
2020-07-13T17:19:58Z,1594660798,2020,17,20,195.7222,195.7222,79.49972,3.63344,-999.00,-999.00,-999.0,no,no,no,300534060451020,NOMAD,AWI/USIABP,MOSAiC,North
2020-07-13T17:30:02Z,1594661403,2020,17,30,195.7292,195.7292,79.49917,3.63322,-999.00,-999.00,-999.0,no,no,no,300534060451020,NOMAD,AWI/USIABP,MOSAiC,North
2020-07-13T17:39:59Z,1594661999,2020,17,40,195.7361,195.7361,79.49914,3.63303,-999.00,-999.00,-999.0,no,no,no,300534060451020,NOMAD,AWI/USIABP,MOSAiC,North
2020-07-13T17:50:03Z,1594662604,2020,17,50,195.7431,195.7431,79.49913,3.63361,-999.00,-999.00,-999.0,no,no,no,300534060451020,NOMAD,AWI/USIABP,MOSAiC,North
2020-07-13T18:00:00Z,1594663200,2020,18,0,195.75,195.75,79.49907,3.63368,-999.00,-999.00,-999.0,no,no,no,300534060451020,NOMAD,AWI/USIABP,MOSAiC,North
2020-07-13T18:09:56Z,1594663796,2020,18,10,195.7569,195.7569,79.49919,3.63053,-999.00,-999.00,-999.0,no,no,no,300534060451020,NOMAD,AWI/USIABP,MOSAiC,North
2020-07-13T18:20:00Z,1594664401,2020,18,20,195.7639,195.7639,79.50302,3.62933,-999.00,-999.00,-999.0,no,no,no,300534060451020,NOMAD,AWI/USIABP,MOSAiC,North
2020-07-13T18:29:57Z,1594664997,2020,18,30,195.7708,195.7708,79.51466,3.63293,-999.00,-999.00,-999.0,no,no,no,300534060451020,NOMAD,AWI/USIABP,MOSAiC,North
2020-07-13T18:40:01Z,1594665602,2020,18,40,195.7778,195.7778,79.52495,3.63979,-999.00,-999.00,-999.0,no,no,no,300534060451020,NOMAD,AWI/USIABP,MOSAiC,North
2020-07-13T18:49:58Z,1594666198,2020,18,50,195.7847,195.7847,79.52566,3.69791,-999.00,-999.00,-999.0,no,no,no,300534060451020,NOMAD,AWI/USIABP,MOSAiC,North
2020-07-13T19:00:02Z,1594666803,2020,19,0,195.7917,195.7917,79.51902,3.73028,-999.00,-999.00,-999.0,no,no,no,300534060451020,NOMAD,AWI/USIABP,MOSAiC,North
2020-07-13T19:09:59Z,1594667399,2020,19,10,195.7986,195.7986,79.50834,3.73148,-999.00,-999.00,-999.0,no,no,no,300534060451020,NOMAD,AWI/USIABP,MOSAiC,North
2020-07-13T19:20:03Z,1594668004,2020,19,20,195.8056,195.8056,79.50023,3.73308,-999.00,-999.00,-999.0,no,no,no,300534060451020,NOMAD,AWI/USIABP,MOSAiC,North
2020-07-13T19:30:00Z,1594668600,2020,19,30,195.8125,195.8125,79.50019,3.73216,-999.00,-999.00,-999.0,no,no,no,300534060451020,NOMAD,AWI/USIABP,MOSAiC,North
2020-07-13T19:39:56Z,1594669196,2020,19,40,195.8194,195.8194,79.50025,3.73198,-999.00,-999.00,-999.0,no,no,no,300534060451020,NOMAD,AWI/USIABP,MOSAiC,North
2020-07-13T19:50:00Z,1594669801,2020,19,50,195.8264,195.8264,79.50023,3.73203,-999.00,-999.00,-999.0,no,no,no,300534060451020,NOMAD,AWI/USIABP,MOSAiC,North
2020-07-13T19:59:57Z,1594670397,2020,20,0,195.8333,195.8333,79.50012,3.73207,-999.00,-999.00,-999.0,no,no,no,300534060451020,NOMAD,AWI/USIABP,MOSAiC,North
2020-07-13T20:10:01Z,1594671002,2020,20,10,195.8403,195.8403,79.50026,3.73203,-999.00,-999.00,-999.0,no,no,no,300534060451020,NOMAD,AWI/USIABP,MOSAiC,North
2020-07-13T20:19:58Z,1594671598,2020,20,20,195.8472,195.8472,79.49981,3.7327,-999.00,-999.00,-999.0,no,no,no,300534060451020,NOMAD,AWI/USIABP,MOSAiC,North
2020-07-13T20:30:02Z,1594672203,2020,20,30,195.8542,195.8542,79.4892,3.73253,-999.00,-999.00,-999.0,no,no,no,300534060451020,NOMAD,AWI/USIABP,MOSAiC,North